EZY1013 LFPG-GMMX

Flight info

Callsign EZY1013
Flight time 3h 11m
Altitude 35000
Route AGOPA DCT ARKIP DCT ARMAL DCT ARTAX DCT BEBIX DCT LMG DCT UVELI DCT OSMOB DCT ARVID DCT PPN DCT NOLSA DCT ALEPO DCT VASUM N10 BANEV/N0452F370 N10 BAN DCT GOTOR DCT KAMPO DCT MONTO DCT MOLIN DCT VJF N10 LINTO UN10 BARIS UB11 SLK UW900 TIXAL UG850 OBOGA
Aircraft A320/M-SDE3FGHIRWY/LB1

Departure

Time 2026-04-30 07:54
Airport Charles de Gaulle International Airport (LFPG)

Arrival

Time 2026-04-30 11:06
Airport Marrakesh Menara Airport (GMMX)
Time Latitude Longitude Altitude Speed Heading
2026-04-30 07:03 49.00564 2.56662 355 ft 0 kts 177°
2026-04-30 07:44 49.00566 2.56662 354 ft 3 kts 177°
2026-04-30 07:44 49.00592 2.56660 354 ft 4 kts 188°
2026-04-30 07:44 49.00614 2.56674 358 ft 4 kts 234°
2026-04-30 07:44 49.00622 2.56702 357 ft 1 kts 265°
2026-04-30 07:45 49.00622 2.56708 354 ft 0 kts 265°
2026-04-30 07:46 49.00622 2.56705 363 ft 2 kts 265°
2026-04-30 07:47 49.00618 2.56628 358 ft 9 kts 265°
2026-04-30 07:47 49.00614 2.56556 359 ft 12 kts 265°
2026-04-30 07:47 49.00607 2.56427 354 ft 12 kts 265°
2026-04-30 07:47 49.00602 2.56321 361 ft 2 kts 265°
2026-04-30 07:48 49.00602 2.56315 354 ft 0 kts 265°
2026-04-30 07:49 49.00625 2.56265 362 ft 12 kts 306°
2026-04-30 07:50 49.00628 2.56103 362 ft 16 kts 259°
2026-04-30 07:50 49.00592 2.55949 359 ft 14 kts 248°
2026-04-30 07:50 49.00565 2.55814 360 ft 12 kts 268°
2026-04-30 07:50 49.00561 2.55691 358 ft 11 kts 266°
2026-04-30 07:51 49.00555 2.55557 357 ft 15 kts 267°
2026-04-30 07:51 49.00533 2.55388 362 ft 17 kts 235°
2026-04-30 07:51 49.00436 2.55335 357 ft 15 kts 172°
2026-04-30 07:51 49.00329 2.55380 360 ft 17 kts 164°
2026-04-30 07:52 49.00214 2.55430 360 ft 18 kts 163°
2026-04-30 07:52 49.00092 2.55483 359 ft 19 kts 165°
2026-04-30 07:52 48.99962 2.55539 357 ft 16 kts 159°
2026-04-30 07:52 48.99868 2.55633 360 ft 17 kts 131°
2026-04-30 07:53 48.99803 2.55785 361 ft 18 kts 144°
2026-04-30 07:53 48.99684 2.55816 360 ft 18 kts 173°
2026-04-30 07:53 48.99604 2.55868 358 ft 11 kts 109°
2026-04-30 07:53 48.99609 2.56018 354 ft 27 kts 84°
2026-04-30 07:54 48.99645 2.56670 356 ft 95 kts 84°
2026-04-30 07:54 48.99713 2.57961 355 ft 147 kts 85°
2026-04-30 07:54 48.99800 2.59642 740 ft 158 kts 87°
2026-04-30 07:54 48.99868 2.61283 1483 ft 155 kts 87°
2026-04-30 07:55 48.99957 2.62968 1906 ft 168 kts 86°
2026-04-30 07:55 49.00057 2.64854 2167 ft 190 kts 87°
2026-04-30 07:55 49.00169 2.66975 2522 ft 211 kts 88°
2026-04-30 07:55 49.00292 2.69219 3341 ft 212 kts 89°
2026-04-30 07:56 49.00415 2.71540 3923 ft 229 kts 88°
2026-04-30 07:56 49.00545 2.74019 4600 ft 239 kts 88°
2026-04-30 07:56 49.00680 2.76563 5425 ft 243 kts 88°
2026-04-30 07:56 49.00642 2.79154 6151 ft 248 kts 97°
2026-04-30 07:57 49.00406 2.81795 6896 ft 255 kts 99°
2026-04-30 07:57 49.00115 2.84490 7668 ft 260 kts 100°
2026-04-30 07:57 48.99802 2.87226 8443 ft 264 kts 100°
2026-04-30 07:57 48.99487 2.90009 9218 ft 269 kts 100°
2026-04-30 07:58 48.99173 2.92844 9979 ft 273 kts 99°
2026-04-30 07:58 48.98854 2.95765 10449 ft 290 kts 101°
2026-04-30 07:58 48.98133 2.98728 10759 ft 309 kts 121°
2026-04-30 07:58 48.96654 3.01154 11358 ft 320 kts 143°
2026-04-30 07:59 48.94614 3.02574 12061 ft 329 kts 165°
2026-04-30 07:59 48.92306 3.02644 12743 ft 340 kts 189°
2026-04-30 07:59 48.90117 3.01218 13388 ft 351 kts 214°
2026-04-30 08:00 48.87730 2.94776 14602 ft 367 kts 258°
2026-04-30 08:00 48.87269 2.90942 15200 ft 371 kts 259°
2026-04-30 08:00 48.86828 2.87059 15776 ft 375 kts 259°
2026-04-30 08:00 48.86388 2.83139 16351 ft 379 kts 259°
2026-04-30 08:01 48.85941 2.79180 16900 ft 383 kts 259°
2026-04-30 08:01 48.85485 2.75231 17450 ft 386 kts 259°
2026-04-30 08:01 48.85011 2.71199 17994 ft 390 kts 259°
2026-04-30 08:01 48.84525 2.67133 18520 ft 393 kts 258°
2026-04-30 08:02 48.82561 2.59405 19575 ft 395 kts 236°
2026-04-30 08:02 48.80987 2.55981 20083 ft 397 kts 232°
2026-04-30 08:03 48.77761 2.49114 21093 ft 402 kts 232°
2026-04-30 08:03 48.74487 2.42182 22057 ft 406 kts 229°
2026-04-30 08:03 48.72559 2.39065 22506 ft 405 kts 219°
2026-04-30 08:04 48.70313 2.36509 22941 ft 404 kts 208°
2026-04-30 08:04 48.67885 2.34322 23362 ft 407 kts 207°
2026-04-30 08:04 48.65444 2.32137 23787 ft 409 kts 208°
2026-04-30 08:04 48.62988 2.29938 24204 ft 411 kts 208°
2026-04-30 08:05 48.60518 2.27728 24602 ft 414 kts 208°
2026-04-30 08:05 48.58035 2.25504 24983 ft 416 kts 208°
2026-04-30 08:05 48.55534 2.23263 25367 ft 418 kts 209°
2026-04-30 08:05 48.53030 2.21019 25747 ft 420 kts 209°
2026-04-30 08:06 48.50511 2.18762 26131 ft 422 kts 209°
2026-04-30 08:06 48.47976 2.16506 26507 ft 424 kts 209°
2026-04-30 08:06 48.45425 2.14261 26865 ft 426 kts 209°
2026-04-30 08:06 48.42860 2.12016 27207 ft 427 kts 210°
2026-04-30 08:07 48.40282 2.09762 27552 ft 429 kts 210°
2026-04-30 08:07 48.37696 2.07505 27887 ft 431 kts 210°
2026-04-30 08:07 48.35096 2.05243 28202 ft 433 kts 210°
2026-04-30 08:07 48.32449 2.03066 28498 ft 435 kts 204°
2026-04-30 08:08 48.29611 2.01489 28822 ft 436 kts 195°
2026-04-30 08:08 48.26628 2.00633 29110 ft 438 kts 185°
2026-04-30 08:08 48.23577 2.00508 29394 ft 440 kts 179°
2026-04-30 08:08 48.20543 2.00602 29664 ft 443 kts 179°
2026-04-30 08:09 48.17452 2.00698 29921 ft 445 kts 179°
2026-04-30 08:09 48.14348 2.00792 30181 ft 447 kts 179°
2026-04-30 08:09 48.11227 2.00890 30457 ft 449 kts 179°
2026-04-30 08:09 48.08096 2.00990 30728 ft 450 kts 179°
2026-04-30 08:10 48.04953 2.01117 30873 ft 455 kts 179°
2026-04-30 08:10 48.01775 2.01294 31004 ft 459 kts 178°
2026-04-30 08:10 47.98566 2.01505 31131 ft 463 kts 178°
2026-04-30 08:10 47.95341 2.01727 31346 ft 464 kts 178°
2026-04-30 08:11 47.92111 2.01940 31631 ft 464 kts 179°
2026-04-30 08:11 47.88888 2.02142 31946 ft 463 kts 179°
2026-04-30 08:11 47.85670 2.02331 32248 ft 462 kts 179°
2026-04-30 08:11 47.82466 2.02516 32556 ft 461 kts 179°
2026-04-30 08:12 47.79267 2.02701 32862 ft 460 kts 179°
2026-04-30 08:12 47.76077 2.02887 33169 ft 458 kts 179°
2026-04-30 08:12 47.72894 2.03073 33471 ft 457 kts 179°
2026-04-30 08:12 47.69716 2.03258 33766 ft 456 kts 180°
2026-04-30 08:13 47.66549 2.03443 34059 ft 455 kts 180°
2026-04-30 08:13 47.63391 2.03629 34348 ft 454 kts 180°
2026-04-30 08:13 47.60235 2.03814 34626 ft 453 kts 179°
2026-04-30 08:13 47.57088 2.03995 34883 ft 452 kts 179°
2026-04-30 08:14 47.53943 2.04177 35064 ft 453 kts 179°
2026-04-30 08:14 47.47651 2.04543 35110 ft 452 kts 179°
2026-04-30 08:15 47.41363 2.04889 35101 ft 452 kts 179°
2026-04-30 08:15 47.35129 2.05190 35100 ft 450 kts 183°
2026-04-30 08:16 47.28953 2.04011 35095 ft 447 kts 191°
2026-04-30 08:16 47.22816 2.02444 35092 ft 447 kts 191°
2026-04-30 08:17 47.16677 2.00886 35092 ft 447 kts 191°
2026-04-30 08:17 47.10550 1.99348 35095 ft 447 kts 191°
2026-04-30 08:18 47.04434 1.97815 35108 ft 445 kts 191°
2026-04-30 08:18 46.98337 1.96289 35113 ft 444 kts 191°
2026-04-30 08:19 46.92261 1.94771 35113 ft 442 kts 191°
2026-04-30 08:19 46.86201 1.93257 35113 ft 441 kts 191°
2026-04-30 08:20 46.80161 1.91739 35110 ft 440 kts 191°
2026-04-30 08:20 46.74128 1.90235 35105 ft 439 kts 190°
2026-04-30 08:21 46.68106 1.88744 35103 ft 439 kts 190°
2026-04-30 08:21 46.62094 1.87251 35103 ft 438 kts 190°
2026-04-30 08:22 46.56114 1.85779 35107 ft 438 kts 190°
2026-04-30 08:22 46.50111 1.84305 35105 ft 437 kts 190°
2026-04-30 08:23 46.44115 1.82826 35102 ft 437 kts 190°
2026-04-30 08:23 46.38127 1.81356 35101 ft 437 kts 190°
2026-04-30 08:24 46.32133 1.79888 35102 ft 436 kts 190°
2026-04-30 08:24 46.26309 1.77579 35099 ft 435 kts 205°
2026-04-30 08:25 46.21302 1.72762 35099 ft 434 kts 221°
2026-04-30 08:25 46.16748 1.67057 35080 ft 433 kts 220°
2026-04-30 08:26 46.12187 1.61374 35075 ft 433 kts 220°
2026-04-30 08:26 46.07618 1.55691 35075 ft 434 kts 220°
2026-04-30 08:27 46.03047 1.50022 35073 ft 434 kts 220°
2026-04-30 08:27 45.98499 1.44405 35082 ft 433 kts 220°
2026-04-30 08:28 45.94402 1.38097 35076 ft 433 kts 236°
2026-04-30 08:28 45.91554 1.30473 35079 ft 433 kts 242°
2026-04-30 08:29 45.88826 1.22762 35077 ft 433 kts 242°
2026-04-30 08:29 45.86080 1.15072 35077 ft 432 kts 242°
2026-04-30 08:30 45.83327 1.07398 35073 ft 433 kts 241°
2026-04-30 08:30 45.79786 1.00501 35071 ft 431 kts 223°
2026-04-30 08:31 45.75238 0.94929 35070 ft 430 kts 219°
2026-04-30 08:31 45.70646 0.89429 35074 ft 430 kts 219°
2026-04-30 08:32 45.66057 0.83950 35076 ft 430 kts 219°
2026-04-30 08:32 45.61489 0.78521 35071 ft 430 kts 219°
2026-04-30 08:33 45.56882 0.73063 35078 ft 430 kts 219°
2026-04-30 08:33 45.52288 0.67603 35074 ft 430 kts 219°
2026-04-30 08:34 45.48462 0.63074 35072 ft 431 kts 219°
2026-04-30 08:34 45.43849 0.57623 35075 ft 431 kts 219°
2026-04-30 08:35 45.39239 0.52174 35073 ft 430 kts 219°
2026-04-30 08:35 45.34625 0.46747 35074 ft 430 kts 219°
2026-04-30 08:36 45.30012 0.41332 35072 ft 430 kts 219°
2026-04-30 08:36 45.25397 0.35933 35078 ft 430 kts 219°
2026-04-30 08:37 45.20776 0.30554 35080 ft 430 kts 219°
2026-04-30 08:37 45.16163 0.25172 35077 ft 429 kts 219°
2026-04-30 08:38 45.11558 0.19802 35076 ft 429 kts 219°
2026-04-30 08:38 45.06948 0.14446 35081 ft 428 kts 219°
2026-04-30 08:39 45.02342 0.09114 35077 ft 427 kts 219°
2026-04-30 08:39 44.97747 0.03789 35082 ft 427 kts 219°
2026-04-30 08:40 44.93148 -0.01513 35098 ft 426 kts 219°
2026-04-30 08:40 44.88556 -0.06789 35100 ft 425 kts 217°
2026-04-30 08:41 44.83966 -0.12054 35096 ft 425 kts 217°
2026-04-30 08:41 44.79374 -0.17314 35095 ft 425 kts 217°
2026-04-30 08:42 44.74785 -0.22566 35096 ft 425 kts 217°
2026-04-30 08:42 44.70217 -0.27779 35079 ft 425 kts 217°
2026-04-30 08:43 44.65607 -0.32984 35096 ft 425 kts 214°
2026-04-30 08:43 44.60504 -0.37079 35097 ft 422 kts 207°
2026-04-30 08:44 44.55296 -0.40904 35086 ft 423 kts 207°
2026-04-30 08:44 44.50086 -0.44727 35093 ft 422 kts 207°
2026-04-30 08:45 44.44882 -0.48545 35083 ft 422 kts 207°
2026-04-30 08:45 44.39678 -0.52350 35081 ft 421 kts 207°
2026-04-30 08:46 44.34481 -0.56149 35078 ft 422 kts 207°
2026-04-30 08:46 44.29282 -0.59946 35076 ft 422 kts 207°
2026-04-30 08:47 44.24076 -0.63724 35074 ft 421 kts 207°
2026-04-30 08:47 44.18880 -0.67495 35073 ft 421 kts 207°
2026-04-30 08:48 44.13715 -0.71238 35064 ft 421 kts 207°
2026-04-30 08:48 44.08519 -0.74986 35062 ft 421 kts 207°
2026-04-30 08:49 44.03319 -0.78727 35069 ft 421 kts 207°
2026-04-30 08:49 43.98128 -0.82480 35066 ft 420 kts 207°
2026-04-30 08:50 43.92953 -0.86213 35077 ft 418 kts 207°
2026-04-30 08:50 43.87794 -0.89907 35072 ft 417 kts 207°
2026-04-30 08:51 43.82647 -0.93576 35075 ft 415 kts 207°
2026-04-30 08:51 43.77506 -0.97245 35071 ft 415 kts 207°
2026-04-30 08:52 43.72378 -1.00913 35068 ft 415 kts 207°
2026-04-30 08:52 43.67250 -1.04569 35064 ft 415 kts 207°
2026-04-30 08:53 43.62113 -1.08203 35061 ft 415 kts 207°
2026-04-30 08:53 43.56973 -1.11831 35060 ft 415 kts 207°
2026-04-30 08:54 43.51846 -1.15467 35057 ft 414 kts 207°
2026-04-30 08:54 43.46756 -1.19062 35053 ft 414 kts 207°
2026-04-30 08:55 43.41632 -1.22674 35056 ft 414 kts 207°
2026-04-30 08:55 43.36509 -1.26280 35056 ft 413 kts 207°
2026-04-30 08:56 43.31388 -1.29876 35058 ft 413 kts 207°
2026-04-30 08:56 43.26270 -1.33461 35054 ft 413 kts 207°
2026-04-30 08:57 43.21152 -1.37037 35056 ft 412 kts 207°
2026-04-30 08:57 43.16045 -1.40599 35053 ft 412 kts 207°
2026-04-30 08:58 43.10938 -1.44155 35052 ft 411 kts 207°
2026-04-30 08:58 43.05840 -1.47706 35053 ft 411 kts 207°
2026-04-30 08:59 43.00746 -1.51258 35054 ft 412 kts 207°
2026-04-30 08:59 42.95648 -1.54796 35059 ft 410 kts 207°
2026-04-30 09:00 42.90556 -1.58328 35066 ft 410 kts 207°
2026-04-30 09:00 42.85467 -1.61847 35074 ft 410 kts 207°
2026-04-30 09:01 42.80387 -1.65361 35079 ft 409 kts 208°
2026-04-30 09:01 42.75313 -1.68867 35079 ft 409 kts 208°
2026-04-30 09:02 42.67688 -1.74058 35084 ft 408 kts 207°
2026-04-30 09:02 42.62595 -1.77468 35075 ft 407 kts 207°
2026-04-30 09:03 42.57548 -1.80844 35086 ft 407 kts 207°
2026-04-30 09:03 42.52471 -1.84244 35080 ft 407 kts 208°
2026-04-30 09:04 42.47396 -1.87644 35083 ft 407 kts 208°
2026-04-30 09:04 42.42323 -1.91035 35095 ft 406 kts 207°
2026-04-30 09:05 42.37248 -1.94417 35095 ft 407 kts 207°
2026-04-30 09:05 42.32173 -1.97796 35101 ft 406 kts 207°
2026-04-30 09:06 42.27104 -2.01168 35104 ft 406 kts 208°
2026-04-30 09:06 42.22029 -2.04529 35104 ft 406 kts 208°
2026-04-30 09:07 42.16955 -2.07875 35104 ft 406 kts 207°
2026-04-30 09:07 42.11884 -2.11220 35102 ft 405 kts 207°
2026-04-30 09:08 42.06822 -2.14566 35097 ft 405 kts 208°
2026-04-30 09:08 42.01760 -2.17898 35102 ft 405 kts 207°
2026-04-30 09:09 41.96694 -2.21225 35101 ft 405 kts 208°
2026-04-30 09:09 41.91631 -2.24550 35100 ft 405 kts 208°
2026-04-30 09:10 41.86567 -2.27863 35098 ft 405 kts 207°
2026-04-30 09:10 41.81497 -2.31171 35095 ft 405 kts 208°
2026-04-30 09:11 41.76420 -2.34480 35095 ft 406 kts 208°
2026-04-30 09:11 41.71342 -2.37786 35096 ft 406 kts 208°
2026-04-30 09:12 41.66248 -2.41101 35097 ft 407 kts 208°
2026-04-30 09:12 41.61153 -2.44410 35100 ft 407 kts 208°
2026-04-30 09:13 41.56055 -2.47715 35104 ft 407 kts 208°
2026-04-30 09:13 41.50949 -2.51011 35105 ft 408 kts 208°
2026-04-30 09:14 41.45838 -2.54315 35109 ft 408 kts 208°
2026-04-30 09:14 41.40723 -2.57613 35113 ft 408 kts 208°
2026-04-30 09:15 41.35634 -2.60875 35116 ft 409 kts 208°
2026-04-30 09:15 41.30674 -2.64516 35114 ft 406 kts 217°
2026-04-30 09:16 41.26030 -2.68816 35312 ft 407 kts 217°
2026-04-30 09:16 41.23704 -2.70966 35572 ft 407 kts 217°
2026-04-30 09:16 41.21376 -2.73109 35802 ft 407 kts 217°
2026-04-30 09:17 41.19045 -2.75252 36026 ft 406 kts 217°
2026-04-30 09:17 41.16719 -2.77389 36232 ft 407 kts 217°
2026-04-30 09:17 41.14389 -2.79526 36436 ft 407 kts 217°
2026-04-30 09:17 41.12056 -2.81658 36623 ft 408 kts 217°
2026-04-30 09:18 41.09715 -2.83793 36841 ft 407 kts 217°
2026-04-30 09:18 41.07390 -2.85915 37060 ft 404 kts 217°
2026-04-30 09:18 41.02788 -2.90122 37110 ft 401 kts 217°
2026-04-30 09:19 40.98985 -2.93604 37111 ft 400 kts 217°
2026-04-30 09:19 40.94403 -2.97786 37110 ft 399 kts 219°
2026-04-30 09:20 40.89791 -3.01975 37109 ft 403 kts 219°
2026-04-30 09:20 40.85155 -3.06171 37111 ft 404 kts 219°
2026-04-30 09:21 40.80548 -3.10340 37106 ft 404 kts 219°
2026-04-30 09:21 40.75916 -3.14541 37111 ft 404 kts 219°
2026-04-30 09:22 40.71279 -3.18730 37110 ft 404 kts 218°
2026-04-30 09:22 40.66641 -3.22901 37113 ft 404 kts 218°
2026-04-30 09:23 40.62004 -3.27078 37110 ft 404 kts 218°
2026-04-30 09:23 40.57371 -3.31251 37116 ft 404 kts 218°
2026-04-30 09:24 40.52728 -3.35413 37121 ft 404 kts 218°
2026-04-30 09:24 40.48083 -3.39575 37120 ft 404 kts 218°
2026-04-30 09:25 40.43431 -3.43731 37123 ft 404 kts 218°
2026-04-30 09:25 40.38781 -3.47876 37123 ft 404 kts 218°
2026-04-30 09:26 40.34134 -3.52017 37125 ft 404 kts 218°
2026-04-30 09:26 40.29484 -3.56156 37124 ft 404 kts 218°
2026-04-30 09:27 40.24834 -3.60282 37123 ft 404 kts 218°
2026-04-30 09:27 40.20220 -3.64372 37123 ft 403 kts 217°
2026-04-30 09:28 40.15576 -3.68475 37120 ft 402 kts 217°
2026-04-30 09:28 40.10937 -3.72564 37120 ft 402 kts 217°
2026-04-30 09:29 40.06301 -3.76663 37113 ft 402 kts 217°
2026-04-30 09:29 40.01663 -3.80751 37109 ft 402 kts 217°
2026-04-30 09:30 39.97020 -3.84828 37110 ft 402 kts 217°
2026-04-30 09:30 39.92374 -3.88901 37119 ft 402 kts 217°
2026-04-30 09:31 39.87730 -3.92966 37114 ft 402 kts 217°
2026-04-30 09:31 39.83090 -3.97028 37110 ft 403 kts 217°
2026-04-30 09:32 39.78438 -4.01091 37114 ft 403 kts 217°
2026-04-30 09:32 39.73784 -4.05140 37115 ft 402 kts 217°
2026-04-30 09:33 39.69135 -4.09193 37112 ft 403 kts 217°
2026-04-30 09:33 39.64473 -4.13244 37111 ft 403 kts 217°
2026-04-30 09:34 39.59808 -4.17296 37112 ft 403 kts 217°
2026-04-30 09:34 39.55147 -4.21335 37115 ft 403 kts 217°
2026-04-30 09:35 39.50512 -4.25341 37121 ft 403 kts 217°
2026-04-30 09:35 39.45837 -4.29370 37113 ft 404 kts 216°
2026-04-30 09:36 39.41161 -4.33396 37114 ft 404 kts 216°
2026-04-30 09:36 39.36483 -4.37419 37113 ft 404 kts 216°
2026-04-30 09:37 39.31806 -4.41439 37113 ft 404 kts 216°
2026-04-30 09:37 39.27127 -4.45450 37109 ft 404 kts 216°
2026-04-30 09:38 39.22442 -4.49458 37108 ft 404 kts 216°
2026-04-30 09:38 39.17755 -4.53476 37106 ft 404 kts 216°
2026-04-30 09:39 39.13065 -4.57477 37106 ft 405 kts 216°
2026-04-30 09:39 39.08365 -4.61473 37105 ft 405 kts 215°
2026-04-30 09:40 39.03662 -4.65468 37100 ft 405 kts 215°
2026-04-30 09:40 38.98810 -4.69157 37105 ft 408 kts 205°
2026-04-30 09:41 38.93494 -4.71745 37107 ft 409 kts 203°
2026-04-30 09:41 38.88174 -4.74331 37101 ft 409 kts 203°
2026-04-30 09:42 38.82847 -4.76917 37104 ft 409 kts 203°
2026-04-30 09:42 38.77555 -4.79465 37106 ft 409 kts 203°
2026-04-30 09:43 38.72224 -4.82036 37107 ft 409 kts 203°
2026-04-30 09:43 38.66899 -4.84606 37105 ft 409 kts 203°
2026-04-30 09:44 38.61567 -4.87171 37102 ft 410 kts 202°
2026-04-30 09:44 38.56226 -4.89732 37106 ft 410 kts 202°
2026-04-30 09:45 38.50888 -4.92300 37103 ft 410 kts 202°
2026-04-30 09:45 38.45544 -4.94850 37099 ft 410 kts 202°
2026-04-30 09:46 38.40197 -4.97403 37102 ft 410 kts 202°
2026-04-30 09:46 38.34860 -4.99953 37100 ft 410 kts 202°
2026-04-30 09:47 38.29522 -5.02498 37109 ft 410 kts 202°
2026-04-30 09:47 38.24189 -5.05039 37105 ft 409 kts 202°
2026-04-30 09:48 38.18851 -5.07571 37099 ft 409 kts 202°
2026-04-30 09:48 38.13552 -5.10085 37102 ft 409 kts 202°
2026-04-30 09:49 38.08211 -5.12616 37095 ft 410 kts 202°
2026-04-30 09:49 38.02867 -5.15137 37100 ft 409 kts 202°
2026-04-30 09:50 37.97529 -5.17656 37093 ft 409 kts 201°
2026-04-30 09:50 37.92189 -5.20167 37098 ft 409 kts 201°
2026-04-30 09:51 37.86857 -5.22674 37098 ft 409 kts 201°
2026-04-30 09:51 37.81528 -5.25192 37103 ft 409 kts 201°
2026-04-30 09:52 37.76194 -5.27694 37103 ft 409 kts 201°
2026-04-30 09:52 37.70857 -5.30187 37100 ft 409 kts 201°
2026-04-30 09:53 37.65524 -5.32670 37103 ft 408 kts 201°
2026-04-30 09:53 37.60196 -5.35165 37097 ft 408 kts 201°
2026-04-30 09:54 37.54868 -5.37655 37102 ft 408 kts 201°
2026-04-30 09:54 37.49538 -5.40134 37102 ft 408 kts 201°
2026-04-30 09:55 37.44208 -5.42610 37101 ft 408 kts 201°
2026-04-30 09:55 37.38881 -5.45081 37099 ft 408 kts 201°
2026-04-30 09:56 37.33589 -5.47532 37108 ft 408 kts 201°
2026-04-30 09:56 37.28261 -5.49996 37105 ft 408 kts 201°
2026-04-30 09:57 37.22931 -5.52462 37099 ft 408 kts 201°
2026-04-30 09:57 37.17602 -5.54921 37106 ft 408 kts 201°
2026-04-30 09:58 37.12269 -5.57378 37107 ft 408 kts 201°
2026-04-30 09:58 37.06939 -5.59831 37102 ft 408 kts 201°
2026-04-30 09:59 36.96279 -5.64726 37097 ft 408 kts 201°
2026-04-30 10:00 36.88292 -5.68380 37093 ft 407 kts 201°
2026-04-30 10:01 36.80353 -5.72005 37097 ft 407 kts 201°
2026-04-30 10:02 36.72349 -5.75652 37083 ft 406 kts 201°
2026-04-30 10:02 36.67033 -5.78067 37083 ft 407 kts 201°
2026-04-30 10:03 36.61746 -5.80467 37082 ft 407 kts 201°
2026-04-30 10:03 36.56440 -5.82879 37081 ft 406 kts 201°
2026-04-30 10:04 36.51135 -5.85287 37081 ft 406 kts 201°
2026-04-30 10:04 36.45826 -5.87685 37080 ft 406 kts 201°
2026-04-30 10:05 36.40514 -5.90083 37078 ft 406 kts 201°
2026-04-30 10:05 36.35202 -5.92485 37084 ft 406 kts 201°
2026-04-30 10:06 36.30781 -5.94480 37088 ft 406 kts 201°
2026-04-30 10:06 36.25443 -5.96774 37085 ft 407 kts 195°
2026-04-30 10:07 36.19788 -5.97351 37084 ft 412 kts 180°
2026-04-30 10:07 36.14062 -5.97030 37083 ft 412 kts 180°
2026-04-30 10:08 36.08336 -5.96738 37079 ft 412 kts 181°
2026-04-30 10:08 36.02600 -5.96446 37078 ft 412 kts 180°
2026-04-30 10:09 35.96868 -5.96144 37076 ft 412 kts 181°
2026-04-30 10:09 35.91138 -5.95852 37076 ft 412 kts 181°
2026-04-30 10:10 35.85405 -5.95552 37075 ft 413 kts 180°
2026-04-30 10:10 35.79739 -5.94181 37074 ft 418 kts 168°
2026-04-30 10:11 35.74125 -5.92283 37078 ft 415 kts 174°
2026-04-30 10:11 35.68415 -5.91888 37079 ft 410 kts 183°
2026-04-30 10:12 35.62736 -5.91859 37079 ft 411 kts 182°
2026-04-30 10:12 35.57017 -5.91810 37077 ft 411 kts 182°
2026-04-30 10:13 35.51296 -5.91759 37079 ft 411 kts 182°
2026-04-30 10:13 35.45578 -5.91718 37082 ft 411 kts 183°
2026-04-30 10:14 35.39861 -5.91677 37082 ft 411 kts 183°
2026-04-30 10:14 35.31306 -5.91859 37084 ft 409 kts 185°
2026-04-30 10:15 35.25620 -5.92071 37089 ft 409 kts 185°
2026-04-30 10:15 35.19928 -5.92245 37087 ft 409 kts 185°
2026-04-30 10:16 35.14240 -5.92394 37088 ft 409 kts 185°
2026-04-30 10:17 35.05714 -5.92614 37089 ft 408 kts 185°
2026-04-30 10:17 34.97242 -5.92851 37091 ft 408 kts 185°
2026-04-30 10:18 34.91664 -5.93652 37092 ft 401 kts 199°
2026-04-30 10:19 34.84582 -5.98759 37083 ft 396 kts 219°
2026-04-30 10:19 34.80310 -6.03001 37075 ft 397 kts 219°
2026-04-30 10:20 34.76027 -6.07241 37073 ft 397 kts 219°
2026-04-30 10:20 34.69598 -6.13593 37069 ft 397 kts 219°
2026-04-30 10:21 34.65310 -6.17822 37070 ft 397 kts 219°
2026-04-30 10:21 34.61020 -6.22055 37075 ft 397 kts 219°
2026-04-30 10:22 34.56728 -6.26278 37078 ft 397 kts 219°
2026-04-30 10:22 34.52465 -6.30470 37084 ft 397 kts 219°
2026-04-30 10:23 34.47722 -6.33844 37084 ft 398 kts 201°
2026-04-30 10:23 34.42391 -6.35747 37082 ft 400 kts 198°
2026-04-30 10:24 34.37048 -6.37623 37080 ft 400 kts 199°
2026-04-30 10:24 34.31707 -6.39505 37078 ft 400 kts 199°
2026-04-30 10:25 34.26365 -6.41379 37075 ft 399 kts 198°
2026-04-30 10:25 34.21026 -6.43252 37076 ft 399 kts 199°
2026-04-30 10:26 34.15695 -6.45118 37077 ft 399 kts 199°
2026-04-30 10:26 34.10361 -6.46981 37076 ft 399 kts 198°
2026-04-30 10:27 34.05031 -6.48834 37072 ft 398 kts 199°
2026-04-30 10:27 33.99719 -6.50735 37065 ft 397 kts 203°
2026-04-30 10:28 33.94986 -6.54036 37069 ft 394 kts 221°
2026-04-30 10:28 33.91040 -6.58625 37068 ft 394 kts 224°
2026-04-30 10:29 33.87118 -6.63231 37068 ft 394 kts 224°
2026-04-30 10:29 33.83191 -6.67826 37066 ft 394 kts 224°
2026-04-30 10:30 33.79258 -6.72422 37066 ft 394 kts 224°
2026-04-30 10:30 33.75322 -6.77020 37063 ft 395 kts 224°
2026-04-30 10:31 33.71404 -6.81588 37062 ft 395 kts 224°
2026-04-30 10:31 33.67458 -6.86172 37064 ft 395 kts 224°
2026-04-30 10:32 33.63511 -6.90756 37063 ft 395 kts 224°
2026-04-30 10:32 33.59560 -6.95335 37063 ft 394 kts 224°
2026-04-30 10:33 33.55619 -6.99915 37060 ft 394 kts 224°
2026-04-30 10:33 33.51682 -7.04496 37060 ft 395 kts 224°
2026-04-30 10:34 33.47732 -7.09074 37061 ft 395 kts 223°
2026-04-30 10:34 33.43770 -7.13648 37061 ft 396 kts 223°
2026-04-30 10:35 33.39800 -7.18218 37061 ft 397 kts 223°
2026-04-30 10:35 33.35821 -7.22796 37066 ft 397 kts 223°
2026-04-30 10:36 33.31844 -7.27377 37071 ft 397 kts 223°
2026-04-30 10:36 33.27869 -7.31954 37075 ft 397 kts 224°
2026-04-30 10:37 33.23888 -7.36527 37079 ft 397 kts 223°
2026-04-30 10:37 33.19900 -7.41092 37085 ft 397 kts 223°
2026-04-30 10:38 33.15912 -7.45591 37092 ft 397 kts 219°
2026-04-30 10:38 33.13609 -7.47405 37087 ft 398 kts 207°
2026-04-30 10:38 33.11019 -7.48587 37093 ft 401 kts 196°
2026-04-30 10:39 33.08249 -7.49085 37091 ft 405 kts 185°
2026-04-30 10:39 33.05422 -7.48860 37087 ft 411 kts 173°
2026-04-30 10:39 32.99820 -7.47302 37083 ft 414 kts 171°
2026-04-30 10:40 32.94216 -7.45710 37077 ft 414 kts 171°
2026-04-30 10:40 32.88601 -7.44122 37079 ft 414 kts 172°
2026-04-30 10:41 32.82989 -7.42539 37080 ft 414 kts 172°
2026-04-30 10:41 32.77379 -7.40965 37081 ft 414 kts 172°
2026-04-30 10:42 32.71767 -7.39391 37080 ft 414 kts 172°
2026-04-30 10:42 32.66156 -7.37823 37080 ft 414 kts 172°
2026-04-30 10:43 32.60549 -7.36244 37078 ft 414 kts 172°
2026-04-30 10:43 32.54939 -7.34665 37079 ft 414 kts 172°
2026-04-30 10:44 32.49325 -7.33099 37079 ft 414 kts 172°
2026-04-30 10:44 32.43713 -7.31533 37080 ft 414 kts 172°
2026-04-30 10:45 32.38094 -7.29970 37081 ft 415 kts 172°
2026-04-30 10:45 32.32468 -7.28474 37082 ft 411 kts 178°
2026-04-30 10:46 32.26930 -7.28904 37079 ft 399 kts 199°
2026-04-30 10:46 32.24355 -7.30079 36758 ft 397 kts 209°
2026-04-30 10:46 32.22022 -7.31827 35447 ft 399 kts 220°
2026-04-30 10:47 32.20044 -7.34171 33986 ft 411 kts 229°
2026-04-30 10:47 32.18155 -7.36737 33185 ft 413 kts 228°
2026-04-30 10:47 32.16246 -7.39286 32286 ft 416 kts 227°
2026-04-30 10:47 32.14301 -7.41846 31321 ft 421 kts 227°
2026-04-30 10:48 32.12351 -7.44386 30802 ft 414 kts 227°
2026-04-30 10:48 32.10425 -7.46885 30195 ft 409 kts 227°
2026-04-30 10:48 32.08520 -7.49358 29586 ft 406 kts 226°
2026-04-30 10:48 32.06630 -7.51812 28945 ft 403 kts 227°
2026-04-30 10:49 32.04748 -7.54254 28322 ft 400 kts 227°
2026-04-30 10:49 32.02882 -7.56674 27706 ft 398 kts 227°
2026-04-30 10:49 32.01027 -7.59079 27097 ft 394 kts 227°
2026-04-30 10:49 31.99191 -7.61462 26498 ft 392 kts 227°
2026-04-30 10:50 31.97367 -7.63828 25914 ft 388 kts 227°
2026-04-30 10:50 31.95558 -7.66173 25328 ft 385 kts 227°
2026-04-30 10:50 31.94368 -7.67715 24953 ft 383 kts 227°
2026-04-30 10:50 31.91984 -7.70802 24206 ft 378 kts 227°
2026-04-30 10:51 31.90817 -7.72315 23854 ft 376 kts 228°
2026-04-30 10:51 31.89068 -7.74583 23338 ft 372 kts 228°
2026-04-30 10:51 31.87335 -7.76825 22840 ft 368 kts 227°
2026-04-30 10:51 31.85757 -7.79178 22352 ft 365 kts 237°
2026-04-30 10:52 31.84618 -7.81827 21889 ft 362 kts 248°
2026-04-30 10:52 31.83955 -7.84667 21413 ft 360 kts 259°
2026-04-30 10:52 31.83775 -7.87599 20954 ft 359 kts 268°
2026-04-30 10:52 31.83778 -7.90525 20484 ft 357 kts 268°
2026-04-30 10:53 31.83775 -7.93434 20005 ft 355 kts 268°
2026-04-30 10:53 31.83768 -7.96325 19538 ft 352 kts 268°
2026-04-30 10:53 31.83759 -7.99204 19037 ft 351 kts 268°
2026-04-30 10:53 31.83751 -8.02065 18549 ft 349 kts 268°
2026-04-30 10:54 31.83745 -8.04916 18060 ft 348 kts 268°
2026-04-30 10:54 31.83738 -8.07760 17566 ft 347 kts 268°
2026-04-30 10:54 31.83730 -8.10596 17073 ft 346 kts 268°
2026-04-30 10:54 31.83719 -8.13422 16583 ft 345 kts 268°
2026-04-30 10:55 31.83706 -8.16239 16098 ft 344 kts 268°
2026-04-30 10:55 31.83693 -8.19050 15609 ft 343 kts 268°
2026-04-30 10:55 31.83682 -8.21817 15124 ft 342 kts 268°
2026-04-30 10:55 31.83672 -8.24610 14644 ft 341 kts 268°
2026-04-30 10:56 31.83662 -8.27393 14150 ft 340 kts 268°
2026-04-30 10:56 31.83652 -8.30173 13662 ft 339 kts 268°
2026-04-30 10:56 31.83636 -8.32942 13167 ft 338 kts 268°
2026-04-30 10:56 31.83341 -8.35661 12674 ft 335 kts 253°
2026-04-30 10:57 31.82416 -8.38157 12176 ft 333 kts 237°
2026-04-30 10:57 31.80942 -8.40234 11673 ft 331 kts 221°
2026-04-30 10:57 31.79040 -8.41741 11164 ft 330 kts 206°
2026-04-30 10:57 31.76937 -8.42826 10653 ft 330 kts 203°
2026-04-30 10:58 31.74861 -8.43886 10442 ft 320 kts 203°
2026-04-30 10:58 31.72860 -8.44913 10315 ft 308 kts 204°
2026-04-30 10:58 31.70937 -8.45903 10168 ft 297 kts 204°
2026-04-30 10:58 31.69063 -8.46866 9955 ft 291 kts 203°
2026-04-30 10:59 31.67208 -8.47819 9659 ft 294 kts 203°
2026-04-30 10:59 31.65325 -8.48784 9234 ft 294 kts 202°
2026-04-30 10:59 31.63376 -8.49350 8861 ft 289 kts 177°
2026-04-30 10:59 31.61489 -8.48670 8447 ft 286 kts 144°
2026-04-30 11:00 31.60239 -8.46914 8029 ft 283 kts 111°
2026-04-30 11:00 31.59963 -8.44654 7607 ft 282 kts 86°
2026-04-30 11:00 31.60255 -8.42379 7147 ft 281 kts 78°
2026-04-30 11:00 31.60662 -8.40146 6452 ft 279 kts 78°
2026-04-30 11:01 31.61071 -8.37931 5794 ft 276 kts 78°
2026-04-30 11:01 31.61466 -8.35743 5122 ft 273 kts 81°
2026-04-30 11:01 31.61673 -8.33544 4479 ft 269 kts 86°
2026-04-30 11:01 31.61733 -8.31381 4149 ft 258 kts 89°
2026-04-30 11:02 31.61743 -8.29340 4089 ft 242 kts 89°
2026-04-30 11:02 31.61754 -8.27424 4031 ft 227 kts 88°
2026-04-30 11:02 31.61775 -8.25607 3954 ft 222 kts 88°
2026-04-30 11:02 31.61803 -8.23819 3869 ft 221 kts 88°
2026-04-30 11:03 31.61836 -8.22017 3777 ft 220 kts 88°
2026-04-30 11:03 31.61874 -8.20225 3691 ft 219 kts 88°
2026-04-30 11:03 31.61915 -8.18433 3608 ft 220 kts 87°
2026-04-30 11:04 31.61689 -8.14906 3151 ft 217 kts 95°
2026-04-30 11:04 31.61527 -8.13189 2863 ft 208 kts 95°
2026-04-30 11:04 31.61385 -8.11552 2606 ft 194 kts 96°
2026-04-30 11:04 31.61251 -8.10040 2375 ft 177 kts 96°
2026-04-30 11:05 31.61135 -8.08678 2104 ft 161 kts 95°
2026-04-30 11:05 31.61023 -8.07416 1859 ft 151 kts 96°
2026-04-30 11:05 31.60913 -8.06218 1714 ft 146 kts 95°
2026-04-30 11:05 31.60812 -8.05039 1562 ft 145 kts 96°
2026-04-30 11:06 31.60715 -8.03935 1520 ft 121 kts 96°
2026-04-30 11:06 31.60657 -8.03301 1528 ft 30 kts 104°
2026-04-30 11:06 31.60581 -8.03144 1531 ft 21 kts 129°
2026-04-30 11:06 31.60491 -8.03013 1530 ft 16 kts 127°
2026-04-30 11:07 31.60452 -8.02900 1533 ft 15 kts 97°
2026-04-30 11:07 31.60442 -8.02786 1534 ft 13 kts 96°
2026-04-30 11:07 31.60433 -8.02689 1533 ft 11 kts 96°
2026-04-30 11:07 31.60424 -8.02576 1537 ft 18 kts 96°
2026-04-30 11:08 31.60411 -8.02422 1538 ft 20 kts 95°
2026-04-30 11:08 31.60396 -8.02257 1533 ft 18 kts 96°
2026-04-30 11:08 31.60321 -8.02193 1541 ft 16 kts 186°
2026-04-30 11:08 31.60211 -8.02208 1536 ft 12 kts 186°
2026-04-30 11:09 31.60183 -8.02256 1541 ft 7 kts 265°
2026-04-30 11:09 31.60185 -8.02299 1540 ft 0 kts 275°
2026-04-30 11:09 31.60185 -8.02301 1540 ft 0 kts 275°